Home   Weather   St. Albert   Past weeks

Flag for Canada Past Weather in St. Albert, Alberta, Canada — Yesterday and Last 2 Weeks

Now
54 °F

Cool.


Feels Like: 53 °F
Forecast: 35 / 58 °F
Wind: 3 mph from East

Location: Edmonton Municipal

Current Time: Sep 29, 2016 at 12:50:27 PM

Latest Report: Sep 29, 2016 at 12:00 PM


Visibility: N/A

Pressure: 30.24 "Hg (27.96 "Hg at 653m altitude)

Humidity: 56%

Dew Point: 38 °F

Location of St. AlbertLocation

Past Weather in St. Albert — Graph

°F

St. Albert Temperature Yesterday

Maximum temperature yesterday: 59 °F (at 3:00 PM)
Minimum temperature yesterday: 36 °F (at 7:00 AM)
Average temperature yesterday: 48 °F

High & Low Weather Summary for the Past Weeks

 TemperatureHumidityPressure
High78 °F (Sep 16, 4:00 PM)100% (Sep 20, 7:00 AM)30.40 "Hg (Sep 20, 7:00 AM)
Low35 °F (Sep 25, 7:00 AM)24% (Sep 16, 4:00 PM)29.46 "Hg (Sep 17, 8:00 PM)
Average54 °F62%30.00 "Hg
* Reported Sep 14 11:00 AM — Sep 29 11:00 AM, St. Albert, Weather by CustomWeather, © 2016

Note: Actual official high and low records may vary slightly from our data, if they occured in-between our weather recording intervals... More about our weather records

Advertising

St. Albert Weather History for the Previous 24 Hours

Scroll right to see more
 ConditionsComfort  
Time TempWeatherWind HumidityBarometerVisibility
11:00 AM
Thu, Sep 29
50 °FCool.5 mph62%30.25 "HgN/A
10:00 AM46 °FCool.2 mph71%30.25 "HgN/A
9:00 AM39 °FChilly.1 mph86%30.26 "HgN/A
8:00 AM37 °FChilly.2 mph87%30.25 "HgN/A
7:00 AM38 °FChilly.3 mph86%30.24 "HgN/A
6:00 AM39 °FChilly.2 mph81%30.24 "HgN/A
5:00 AM40 °FChilly.5 mph79%30.24 "HgN/A
4:00 AM41 °FQuite cool.5 mph74%30.24 "HgN/A
3:00 AM43 °FQuite cool.7 mph71%30.24 "HgN/A
2:00 AM43 °FQuite cool.6 mph72%30.24 "HgN/A
1:00 AM45 °FCool.9 mph66%30.24 "HgN/A
12:00 AM46 °FCool.10 mph61%30.25 "HgN/A
11:00 PM
Wed, Sep 28
47 °FCool.8 mph55%30.26 "HgN/A
10:00 PM48 °FCool.9 mph50%30.27 "HgN/A
9:00 PM50 °FCool.9 mph50%30.28 "HgN/A
8:00 PM52 °FCool.10 mph44%30.27 "HgN/A
7:00 PM55 °FCool.15 mph36%30.27 "HgN/A
6:00 PM58 °FRefreshingly cool.16 mph32%30.27 "HgN/A
5:00 PM58 °FRefreshingly cool.13 mph33%30.28 "HgN/A
4:00 PM58 °FRefreshingly cool.13 mph32%30.28 "HgN/A
3:00 PM59 °FRefreshingly cool.13 mph28%30.29 "HgN/A
2:00 PM58 °FRefreshingly cool.12 mph32%30.32 "HgN/A
1:00 PM58 °FRefreshingly cool.7 mph34%30.33 "HgN/A
12:00 PM54 °FCool.8 mph42%30.35 "HgN/A
Weather by CustomWeather, © 2016

See weather overviewHow to use our weather pages